Location: Clifton Park
(41.4873°N, 81.8024°W)
Time: 22:14:30
(UTC+00:00)

Helios 1A Rocket - Pass Details

Date: 21 January 2020
Orbit: 565 x 586 km, 98.3° (Epoch: 16 February)

Event Time Altitude Azimuth Distance (km) Brightness Sun altitude
Rises 10:53:43 0° 20° (NNE) 2,804 6.6 -21.3°
Reaches altitude 10° 10:55:58 10° 28° (NNE) 1,904 5.8 -20.8°
Maximum altitude 10:59:52 41° 99° (E) 853 4.3 -20.1°
Drops below altitude 10° 11:03:47 10° 170° (S) 1,898 5.8 -19.4°
Sets 11:06:01 0° 178° (S) 2,795 6.6 -19.0°
